This demonstration page uses our WeatherBlox Daily Observations layout. Learn more.

40.92945, -100.16068

Hourly Observations for July 12, 2020

Temp ( °F °C ) Dew Point ( °F °C ) Humidity (%) Winds ( mph kmh ) Pressure ( in mb ) Visibility ( mi km ) Precip ( " mm )
12:15 am 00:15 Clear 64 17.9 60 15.6 87 87 ENE 5 7 30 1016 10 16.0934 0 0
12:35 am 00:35 Clear 65 18.5 60 15.5 83 83 Calm 30 1016 10 16.0934 0 0
12:55 am 00:55 Clear 61 16.1 58 14.6 91 91 W 5 7 30.04 1017 10 16.0934 0 0
1:15 am 01:15 Clear 62 16.5 59 15.2 92 92 WNW 5 7 30.04 1017 10 16.0934 0 0
1:35 am 01:35 Clear 61 16.2 59 15.1 93 93 W 6 9 30.05 1017 10 16.0934 0 0
1:55 am 01:55 Clear 60 15.6 59 14.9 96 96 Calm 30.05 1018 10 16.0934 0 0
2:15 am 02:15 Clear 60 15.4 58 14.7 96 96 WNW 5 7 30.06 1018 10 16.0934 0 0
2:35 am 02:35 Clear 60 15.3 58 14.6 96 96 Calm 30.06 1018 10 16.0934 0 0
2:55 am 02:55 Clear 59 15 58 14.4 96 96 Calm 30.06 1018 10 16.0934 0 0
3:15 am 03:15 Clear 59 14.9 58 14.2 96 96 SW 3 6 30.07 1018 10 16.0934 0 0
3:35 am 03:35 Clear 58 14.6 57 14 96 96 NW 3 6 30.07 1018 10 16.0934 0 0
3:55 am 03:55 Clear 59 14.8 57 14.1 96 96 Calm 30.06 1018 10 16.0934 0 0
4:15 am 04:15 Clear 58 14.7 57 14.1 96 96 N 5 7 30.06 1018 10 16.0934 0 0
4:35 am 04:35 Clear 59 15 58 14.2 95 95 Calm 30.06 1018 10 16.0934 0 0
4:55 am 04:55 Clear 59 14.8 58 14.3 97 97 Calm 30.06 1018 10 16.0934 0 0
5:15 am 05:15 Clear 58 14.6 57 14.1 97 97 Calm 30.06 1018 10 16.0934 0 0
5:35 am 05:35 Clear 58 14.2 56 13.6 96 96 Calm 30.07 1018 10 16.0934 0 0
5:55 am 05:55 Clear 57 13.9 56 13.4 97 97 Calm 30.07 1018 10 16.0934 0 0
6:15 am 06:15 Clear 57 14 56 13.6 97 97 Calm 30.06 1018 10 16.0934 0 0
6:35 am 06:35 Sunny 57 13.7 56 13.1 96 96 Calm 30.08 1019 10 16.0934 0 0
6:55 am 06:55 Sunny 57 13.9 56 13.3 96 96 Calm 30.08 1018 10 16.0934 0 0
7:15 am 07:15 Sunny 59 14.8 57 14 95 95 NW 3 6 30.07 1018 10 16.0934 0 0
7:35 am 07:35 Sunny 60 15.7 58 14.5 93 93 NW 3 6 30.07 1018 10 16.0934 0 0
7:55 am 07:55 Sunny 62 16.4 59 15 91 91 Calm 30.05 1018 10 16.0934 0 0
8:15 am 08:15 Sunny 64 17.6 61 15.9 90 90 Calm 30.05 1018 10 16.0934 0 0
8:35 am 08:35 Sunny 66 19 61 16.2 84 84 Calm 30.03 1017 10 16.0934 0 0
8:55 am 08:55 Sunny 69 20.4 61 16.2 77 77 Calm 30.02 1017 7 11.26538 0 0
9:15 am 09:15 Sunny 70 21.2 61 16.1 73 73 Calm 30.02 1017 10 16.0934 0 0
9:35 am 09:35 Sunny 72 22 62 16.9 73 73 SW 5 7 30.01 1016 10 16.0934 0 0
9:55 am 09:55 Sunny 73 22.9 63 17.4 71 71 Calm 30.01 1016 10 16.0934 0 0
10:15 am 10:15 Sunny 74 23.5 63 17.4 69 69 Calm 29.99 1016 10 16.0934 0 0
10:35 am 10:35 Partly Cloudy with Light Thunderstorms 74 23.2 64 17.6 71 71 N 6 9 29.99 1016 10 16.0934 0 0
10:55 am 10:55 Partly Cloudy with Nearby Thunderstorms 73 22.6 66 18.7 79 79 Calm 29.99 1016 10 16.0934 0 0
11:15 am 11:15 Partly Cloudy with Nearby Thunderstorms 74 23.4 64 17.7 70 70 SSE 6 9 29.95 1014 10 16.0934 0 0
11:35 am 11:35 Partly Cloudy 78 25.5 64 17.7 62 62 SE 8 13 29.94 1014 10 16.0934 0 0
11:55 am 11:55 Sunny 80 26.6 62 16.5 54 54 SSE 6 9 29.95 1014 10 16.0934 0 0
12:15 pm 12:15 Sunny with Thunderstorms 80 26.4 62 16.5 55 55 SSW 6 9 29.95 1014 10 16.0934 0 0
12:35 pm 12:35 Sunny 79 26 62 16.8 57 57 SSE 8 13 29.94 1014 10 16.0934 0 0
12:55 pm 12:55 Sunny 79 26.1 62 16.9 57 57 SSE 8 13 29.92 1013 10 16.0934 0 0
1:15 pm 13:15 Sunny 80 26.6 63 17.1 56 56 S 9 15 29.92 1013 10 16.0934 0 0
1:35 pm 13:35 Sunny 81 27.2 61 16 50 50 SSE 8 13 29.89 1012 10 16.0934 0 0
1:55 pm 13:55 Sunny 80 26.5 60 15.7 52 52 SSE 10 17 29.89 1012 10 16.0934 0 0
2:15 pm 14:15 Sunny 84 28.7 59 15.2 44 44 SE 13 20 29.86 1011 10 16.0934 0 0
2:35 pm 14:35 Sunny 84 29.1 59 14.8 42 42 SSE 14 22 29.85 1011 10 16.0934 0 0
2:55 pm 14:55 Sunny 85 29.3 59 15.2 42 42 ESE 14 22 29.82 1010 10 16.0934 0 0
3:15 pm 15:15 Sunny 85 29.2 58 14.6 41 41 ESE 15 24 29.82 1010 10 16.0934 0 0
3:35 pm 15:35 Sunny 85 29.4 61 16 44 44 SE 15 24 29.79 1009 10 16.0934 0 0
3:55 pm 15:55 Sunny 86 30 59 15.2 41 41 SSE 17 28 29.79 1009 10 16.0934 0 0
4:15 pm 16:15 Sunny 86 30.2 60 15.6 41 41 SSE 16 26 29.79 1009 10 16.0934 0 0
4:35 pm 16:35 Sunny 87 30.6 63 17.2 45 45 SSE 13 20 29.79 1009 10 16.0934 0 0
4:55 pm 16:55 Sunny 86 30.2 60 15.8 42 42 SSE 14 22 29.8 1009 10 16.0934 0 0
5:15 pm 17:15 Sunny 87 30.6 61 16.2 42 42 SSE 13 20 29.79 1009 10 16.0934 0 0
5:35 pm 17:35 Sunny 87 30.3 62 16.5 43 43 SE 12 19 29.79 1009 10 16.0934 0 0
5:55 pm 17:55 Sunny 87 30.6 62 16.4 42 42 ESE 12 19 29.77 1008 10 16.0934 0 0
6:15 pm 18:15 Sunny 87 30.3 61 16.1 42 42 SE 13 20 29.76 1008 10 16.0934 0 0
6:35 pm 18:35 Sunny 86 30.1 62 16.6 44 44 ESE 13 20 29.75 1007 10 16.0934 0 0
6:55 pm 18:55 Sunny 86 29.8 63 17.3 47 47 ESE 15 24 29.75 1007 10 16.0934 0 0
7:15 pm 19:15 Sunny 83 28.5 64 17.9 53 53 ESE 16 26 29.76 1008 10 16.0934 0 0
7:35 pm 19:35 Sunny 83 28.1 65 18.1 55 55 SE 15 24 29.76 1008 10 16.0934 0 0
7:55 pm 19:55 Sunny 81 27.4 63 17 53 53 SE 16 26 29.75 1007 10 16.0934 0 0
8:15 pm 20:15 Sunny 80 26.6 65 18.1 60 60 SE 13 20 29.77 1008 10 16.0934 0 0
8:35 pm 20:35 Sunny 80 26.5 65 18.5 62 62 SE 12 19 29.77 1008 10 16.0934 0 0
8:55 pm 20:55 Sunny 79 26.1 65 18.3 62 62 SE 10 17 29.77 1008 10 16.0934 0 0
9:15 pm 21:15 Partly Cloudy 78 25.5 65 18.5 65 65 SE 12 19 29.78 1008 10 16.0934 0 0
9:35 pm 21:35 Partly Cloudy 77 25 65 18.5 67 67 ESE 7 11 29.78 1008 10 16.0934 0 0
9:55 pm 21:55 Clear 76 24.4 66 18.7 71 71 SE 12 19 29.78 1008 10 16.0934 0 0
10:15 pm 22:15 Clear 73 23 66 18.8 77 77 S 6 9 29.81 1009 10 16.0934 0 0
10:35 pm 22:35 Clear 73 22.5 66 19 81 81 SE 7 11 29.81 1010 10 16.0934 0 0
10:55 pm 22:55 Clear 73 22.5 65 18.5 78 78 SE 10 17 29.81 1010 10 16.0934 0 0
11:15 pm 23:15 Clear 72 22.2 65 18.5 80 80 SE 10 17 29.81 1010 10 16.0934 0 0
11:35 pm 23:35 Clear 71 21.6 66 18.7 84 84 SE 10 17 29.83 1010 10 16.0934 0 0
11:55 pm 23:55 Clear 71 21.5 67 19.5 88 88 SE 13 20 29.82 1010 10 16.0934 0 0

Powered by AerisWeather